星链-31449 (STARLINK-31449 )

导读 | 豆包AI

STARLINK-31449是美国太空探索技术公司(SpaceX)星链计划的低轨通信卫星,于2024年2月15日发射入轨,属于星链第二代星座部署的组成部分。它运行在近地轨道,采用增强型相控阵天线与激光星间链路技术,可支持高带宽、低延迟的全球宽带互联网接入,能为网络基础设施薄弱地区提供服务,也支撑星链全球覆盖的网络架构,是SpaceX推进全球卫星互联网组网的重要节点。

Basic Information
目录编号:
58966
目录名称:
STARLINK-31449
国际标识:
2024-031B
轨道中心:
EARTH
卫星名称:
星链-31449
卫星全名:
星链-31449 (STARLINK-31449 )
卫星状态:
在轨 (已飞行806 天)
发射日期:
2024-02-15 UTC
国别 :
美国 (US)
星等 :
--
Orbit Information
数据来源 国际轨道数据 AOE轨道数据
星历时间 2026-04-30T20:32:54+0800
12小时前
查看轨道信息
2026-04-28T22:00:00+0800
2天前
查看轨道信息
半长轴 6853.359km 6853.369km
偏心率 0.000168 0.0001803
轨道倾角 53.162° 53.159°
近地点辐角 93.761° 81.797°
升交点赤经 55.610° 64.620°
平近点角 266.358° 28.123°
近地点 474.07km 473.996km
远地点 476.374km 476.468km
周期 94.105分钟 94.106分钟
每日圈数 15.301978 15.301946
Detailed Information
固有亮度:
5
最大亮度:
0.3
卫星平台:
Starlink v2.0 mini
覆盖范围:
全球
运营商:
太空探索技术公司
运营商所在国:
美国
制造商(研发单位):
太空探索技术公司
制造商所在国:
美国
使用方式:
暂无
Satellite Introduction
星链(Starlink)计划是由太空探索技术公司(SpaceX)提出的一个巨型低轨卫星互联网星座项目,计划在2019年至2024年间在太空搭建由约1.2万颗卫星组成的“星链”网络,其中1584颗将部署在地球上空550千米处的近地轨道,并从2020年开始工作。该卫星仍在工作。
2D Orbit Map
3D Orbit Map
Orbit Altitude Analysis Chart
Orbit Inclination Analysis Chart
Orbit Comprehensive Analysis Chart
View Comprehensive Chart